Regional Weather Roundup
Issued by NWS

Home | Current Version | Previous Version | Text Only | Print | Product List | Glossary Off
Versions: 1 2 3 4 5 6 7 8 9 10 11 12 13 14 15 16 17 18 19 20 21 22 23 24 25 26 27

000
ASUS45 KBOU 190307
RWRCO

WEATHER ROUNDUP FOR COLORADO
NATIONAL WEATHER SERVICE DENVER/BOULDER CO
900 PM MDT FRI AUG 18 2017

NOTE: "FAIR" INDICATES FEW OR NO CLOUDS BELOW 12000 FEET WITH NO
SIGNIFICANT WEATHER AND/OR OBSTRUCTIONS TO VISIBILITY.

COZ001>005-013-030-031-190400-
...NORTHWEST COLORADO...

CITY           SKY/WX    TMP DP  RH WIND       PRES   REMARKS
CRAIG          FAIR      66  27  23 NW3       30.20R
HAYDEN         FAIR      71  33  24 S6        30.24R
MEEKER         FAIR      70  35  27 CALM      30.22R
RABBIT EARS PA FAIR      55  28  35 N3        30.56R
STEAMBOAT SPGS FAIR      65  36  33 CALM      30.25R
WALDEN         FAIR      64  28  25 SW5       30.37S
$$

COZ006>008-011-190400-
...WEST CENTRAL VALLEYS...

CITY           SKY/WX    TMP DP  RH WIND       PRES   REMARKS
GRAND JUNCTION FAIR      79  30  16 NE6       30.08R
MONTROSE       FAIR      73  45  36 SE7       30.18R
EAGLE          FAIR      73  31  21 NW3       30.26R
RIFLE          FAIR      75  25  15 SE8       30.14R
DELTA          FAIR      82  28  13 NE5       30.12R
NUCLA          FAIR      79  27  14 NW5       30.22R
$$

COZ017>023-064>068-190400-
...SOUTHWEST COLORADO...

CITY           SKY/WX    TMP DP  RH WIND       PRES   REMARKS
DURANGO        FAIR      73  31  21 N7        30.25R
CORTEZ         FAIR      67  37  33 CALM      30.18R
PAGOSA SPRINGS FAIR      69  29  23 CALM      30.35R
TELLURIDE      FAIR      63  37  37 SE8       30.47S
WOLF CREEK PAS MOCLDY    52  27  37 W5        30.72S
$$

COZ009-010-012-014-032>034-037-058>063-190400-
...CENTRAL COLORADO...

CITY           SKY/WX    TMP DP  RH WIND       PRES   REMARKS
ASPEN          FAIR      62  40  44 S7        30.34R
BUENA VISTA    CLOUDY    66  34  30 NW6       30.35R
COPPER MTN     FAIR      55  25  30 W10       30.69R
BERTHOUD PASS  FAIR      46  41  81 W5        30.72S
COTTONWOOD PAS FAIR      68  19  15 W16       30.50S
GUNNISON       FAIR      65  38  36 CALM      30.34R
KREMMLING      FAIR      73  34  23 N5        30.31S
LEADVILLE      CLOUDY    59  31  34 N6        30.51R
MONARCH PASS   FAIR      54  27  35 W20       30.79R
SALIDA         FAIR      69  32  25 W9        30.37R
SUNLIGHT       FAIR      52  23  32 SW8       30.61S
WILKERSON PASS TSTM      52  39  62 S7G25     30.67R
$$

COZ069>075-190400-
...SAN LUIS VALLEY/SANGRE DE CRISTO MOUNTAINS...

CITY           SKY/WX    TMP DP  RH WIND       PRES   REMARKS
ALAMOSA        FAIR      65  45  48 SE3       30.30R
DEL NORTE      FAIR      64  36  34 W7        30.37R
LA VETA PASS   NOT AVBL
SAGUACHE       FAIR      64  34  32 N9        30.36R
$$

COZ035-036-038>040-190400-
...NORTHERN COLORADO FRONT RANGE...

CITY           SKY/WX    TMP DP  RH WIND       PRES   REMARKS
DENVER INTL AP FAIR      69  45  41 SE8       30.14R
DMNS CITY PARK   N/A     78  45  31 SE7G13    30.14R
AURORA         PTCLDY    73  49  42 SE12      30.17R
FRONT RANGE AP FAIR      70  50  49 SE9       30.16S
ERIE MUNI ARPT FAIR      72  45  37 CALM      30.18S
BOULDER MUN AP FAIR      72  45  37 W5        30.15R
CENTENNIAL     FAIR      73  48  41 S8        30.18R
BROOMFIELD     PTCLDY    75  43  31 NW8       30.17S
FORT COLLINS   FAIR      73  52  47 SW3       30.14R
LONGMONT       FAIR      70  52  53 W6        30.15S
$$

COZ041-046-047-076>085-087-088-190400-
...PIKES PEAK/PALMER DIVIDE AND SOUTHERN FOOTHILLS...

CITY           SKY/WX    TMP DP  RH WIND       PRES   REMARKS
COLO. SPRINGS  FAIR      72  44  36 SE9       30.24R
A. F. ACADEMY  FAIR      69  42  38 S6        30.26R
SCHRIEVER AFB  FAIR      67  45  46 E6        30.25R
CHEYENNE MTN   FAIR      72  38  28 S10G18    30.25R
ELLICOTT       NOT AVBL
FALCON         FAIR      64  45  48 S8        30.30R
FORT CARSON    FAIR      74  45  35 SW5       30.21R
LIMON          FAIR      63  54  72 SE6       30.18R
MONUMENT HILL  FAIR      63  45  51 S9        30.31R
CANON CITY     CLEAR     75  46  35 NE10      30.15R
WALSENBURG     FAIR      70  41  35 S6        30.21R
TRINIDAD       FAIR      69  47  45 S7        30.21R
$$

COZ042>045-048>051-090-091-190400-
...NORTHEAST COLORADO...

CITY           SKY/WX    TMP DP  RH WIND       PRES   REMARKS
GREELEY ARPT   FAIR      69  57  65 CALM      30.11R
AKRON          FAIR      70  48  45 SE14      30.12R
BURLINGTON     FAIR      68  56  65 SE9       30.12R
WRAY           NOT AVBL
YUMA           FAIR      63  43  48 SE7       30.09S
STERLING       FAIR      70  52  52 S6        30.06S
HOLYOKE        FAIR      63  55  77 S6        30.08R
FORT MORGAN    FAIR      72  47  41 SE12      30.11R
$$

COZ086-089-092>099-190400-
...SOUTHEAST COLORADO...

CITY           SKY/WX    TMP DP  RH WIND       PRES   REMARKS
PUEBLO         FAIR      75  46  35 E8        30.10R
LA JUNTA       FAIR      74  55  51 E8        30.09R
LAMAR          FAIR      70  60  70 E7        30.05R
SPRINGFIELD      N/A     69  61  75 E3        30.12R
$$




USA.gov is the U.S. government's official web portal to all federal, state and local government web resources and services.